This demonstration page uses our WeatherBlox Daily Observations layout. Learn more.

Left ArrowRight Arrow

Hourly Observations for April 7, 2017

Temp ( °F °C ) Dew Point ( °F °C ) Humidity (%) Winds ( mph kmh ) Pressure ( in mb ) Visibility ( mi km ) Precip ( " mm )
12:11 am 00:11 Cloudy 51 10.6 48 8.9 89 89 S 35 56 29.56 1001 10 16 0.00 0.03
12:53 am 00:53 Cloudy 52 11.1 49 9.4 89 89 S 30 48 29.55 1001 10 16 0.00 0.03
1:23 am 01:23 Cloudy 52 11.1 49 9.4 89 89 S 29 46 29.59 1002 10 16 0.00 0.00
1:44 am 01:44 Cloudy 52 11 48 9 88 88 S 31 50 29.59 1002 10 16 0.00 0.00
1:53 am 01:53 Cloudy 51 10.6 49 9.4 92 92 S 29 46 29.59 1002 10 16 0.00 0.00
2:01 am 02:01 Cloudy 52 11.1 49 9.4 89 89 S 28 44 29.59 1002 10 16 0.00 0.00
2:53 am 02:53 Cloudy 51 10.6 49 9.4 92 92 S 24 39 29.60 1002 10 16 0.02 0.51
3:53 am 03:53 Cloudy 52 11.1 48 8.9 86 86 S 30 48 29.61 1003 10 16 0.00 0.00
4:26 am 04:26 Cloudy 52 11 48 9 88 88 S 25 41 29.62 1003 10 16 0.00 0.00
4:53 am 04:53 Cloudy 52 11.1 48 8.9 86 86 S 24 39 29.61 1003 10 16 0.00 0.00
5:17 am 05:17 Cloudy 52 11 48 9 88 88 S 23 37 29.62 1003 10 16 0.00 0.00
5:53 am 05:53 Cloudy 52 11.1 49 9.4 89 89 S 22 35 29.66 1004 10 16 0.00 0.00
6:04 am 06:04 Cloudy 52 11 48 9 88 88 SSW 14 22 29.68 1005 10 16 0.00 0.00
6:14 am 06:14 Cloudy 52 11 48 9 88 88 S 20 31 29.71 1006 10 16 0.00 0.00
6:53 am 06:53 Partly Cloudy 52 11.1 49 9.4 89 89 S 23 37 29.68 1005 10 16 0.00 0.00
7:01 am 07:01 Mostly Cloudy 52 11.1 48 8.9 86 86 SSW 15 24 29.71 1006 10 16 0.00 0.00
7:53 am 07:53 Mostly Cloudy 52 11.1 48 8.9 86 86 S 20 31 29.70 1006 10 16 0.00 0.00
8:53 am 08:53 Mostly Cloudy 54 12.2 49 9.4 83 83 SSE 21 33 29.73 1007 10 16 0.00 0.00
9:53 am 09:53 Mostly Cloudy 55 12.8 49 9.4 80 80 S 24 39 29.75 1007 10 16 0.00 0.00
10:46 am 10:46 Mostly Cloudy 55 13 48 9 77 77 S 23 37 29.77 1008 10 16 0.00 0.00
10:53 am 10:53 Mostly Cloudy 57 13.9 50 10 78 78 S 26 43 29.75 1008 10 16 0.00 0.00
11:53 am 11:53 Partly Cloudy 59 15 49 9.4 69 69 SSE 29 46 29.75 1008 10 16 0.00 0.00
12:53 pm 12:53 Partly Cloudy 61 16.1 50 10 67 67 SSE 25 41 29.75 1008 10 16 0.00 0.00
1:53 pm 13:53 Mostly Cloudy 61 16.1 48 8.9 63 63 SSE 26 43 29.75 1007 10 16 0.00 0.00
2:23 pm 14:23 Mostly Cloudy with Nearby Thunderstorms 60 15.6 47 8.3 62 62 SSE 23 37 29.74 1007 10 16 0.00 0.00
2:53 pm 14:53 Cloudy 60 15.6 47 8.3 62 62 S 24 39 29.73 1007 10 16 0.00 0.00
3:33 pm 15:33 Mostly Cloudy with Nearby Thunderstorms 58 14.4 50 10 75 75 SSE 25 41 29.71 1006 10 16 0.00 0.03
3:53 pm 15:53 Partly Cloudy with Nearby Thunderstorms 60 15.6 49 9.4 67 67 SSE 23 37 29.70 1006 10 16 0.00 0.03
4:14 pm 16:14 Partly Cloudy 57 14 48 9 72 72 S 24 39 29.71 1006 10 16 0.00 0.00
4:30 pm 16:30 Cloudy with Strong Thunderstorms 55 13 50 10 82 82 S 13 20 29.71 1006 3 4 0.00 0.00
4:46 pm 16:46 Cloudy with Rain 55 13 52 11 88 88 SSE 18 30 29.71 1006 2 3 0.00 0.00
4:50 pm 16:50 Cloudy with Strong Thunderstorms 54 12 50 10 88 88 SSE 15 24 29.71 1006 2 3 0.00 0.00
4:53 pm 16:53 Cloudy with Thunderstorms 54 12.2 50 10 87 87 SE 15 24 29.70 1006 6 10 0.17 4.32
5:21 pm 17:21 Mostly Cloudy with Nearby Thunderstorms 54 12.2 50 10 87 87 S 14 22 29.71 1006 6 10 0.02 0.51
5:37 pm 17:37 Mostly Cloudy with Mist and Fog 55 12.8 51 10.6 87 87 S 22 35 29.68 1005 6 10 0.02 0.51
5:53 pm 17:53 Mostly Cloudy 55 12.8 50 10 83 83 S 15 24 29.70 1006 10 16 0.02 0.51
6:53 pm 18:53 Cloudy 55 12.8 51 10.6 87 87 S 7 11 29.69 1005 10 16 0.00 0.00
7:53 pm 19:53 Cloudy with Light Rain 50 10 48 8.9 93 93 WSW 6 9 29.71 1006 4 6 0.07 1.78
8:53 pm 20:53 Cloudy with Light Rain 49 9.4 47 8.3 93 93 WNW 5 7 29.72 1006 8 13 0.15 3.81
9:53 pm 21:53 Cloudy 48 8.9 46 7.8 93 93 E 7 11 29.77 1008 10 16 0.02 0.51
10:53 pm 22:53 Cloudy 47 8.3 45 7.2 93 93 E 7 11 29.78 1009 10 16 0.00 0.03
11:53 pm 23:53 Cloudy 47 8.3 45 7.2 93 93 N 3 6 29.79 1009 10 16 0.00 0.00

Powered by AerisWeather